Wind_Speed
1 1 2 2 2 2 2 3 3 3 3 3 3 3 4 4 5 5 6 6 6 7 8 10 10 10 11 12 12 13 14 14 14 14 14 15 16 17
0 1 2 2 2 3 3 3 3 3 3 4 4 4 5 5 5 6 6 7 8 9 10 11 11 12 13 14 14 14 14 15 16 16 16 17 18 19
1 1 2 3 3 4 4 3 4 4 3 3 5 5 6 6 7 7 8 8 9 10 11 11 12 13 14 14 15 15 16 16 17 18 19 19 20 21
3 3 3 3 4 4 4 5 5 4 5 4 5 6 6 7 8 9 10 10 11 11 12 13 13 14 14 15 16 17 17 18 18 19 20 21 22 23
4 4 5 5 5 5 6 6 6 6 7 8 7 8 8 9 9 10 11 12 13 13 13 14 14 15 16 17 18 18 19 20 20 21 22 23 24 24
6 6 6 7 7 7 7 8 8 8 9 9 10 10 10 11 11 12 13 13 14 15 16 17 17 18 19 20 20 21 22 23 24 24 25 26 26 27
7 7 8 8 9 9 9 9 9 9 10 10 11 11 11 11 12 13 14 15 16 17 18 19 19 20 21 22 23 24 25 25 26 27 27 28 28 28
8 9 9 9 10 10 10 10 11 11 11 12 12 13 13 14 15 16 16 17 18 19 20 21 22 22 23 24 25 26 27 27 27 28 29 29 30 30
10 10 11 11 11 11 12 12 13 13 13 13 14 15 16 16 17 18 18 19 20 21 22 23 24 25 26 27 27 28 28 28 29 29 30 31 31 32
12 12 13 13 14 14 14 15 15 15 15 16 17 17 18 18 19 20 20 21 22 23 24 25 26 27 28 29 29 29 29 30 31 31 31 32 33 34
15 15 16 16 16 16 16 17 17 17 17 18 19 19 20 21 21 22 22 23 24 25 26 27 28 28 29 30 31 31 31 32 33 33 34 35 36 37
17 17 17 17 17 17 17 17 18 19 19 20 20 21 22 22 23 24 24 25 26 27 28 29 30 31 30 30 32 33 34 35 35 36 37 38 39 40
18 18 19 19 19 19 19 19 20 21 21 22 22 23 24 25 25 26 27 28 29 30 31 32 32 33 33 32 33 34 36 37 38 38 39 41 41 42
20 20 20 20 20 21 21 22 22 23 23 23 24 25 26 27 27 28 29 30 31 32 33 34 34 35 34 35 35 36 38 39 40 41 42 43 44 45
21 21 22 21 21 22 23 23 24 24 25 25 26 27 28 28 29 29 31 32 33 34 35 36 37 37 37 37 38 39 40 41 42 43 44 45 46 46
22 22 22 23 23 24 24 25 25 26 27 28 28 29 30 31 31 32 34 35 36 37 38 39 39 39 40 40 41 42 43 44 44 46 46 47 48 49
24 24 24 25 26 26 26 27 27 28 29 30 30 31 32 33 34 35 36 38 38 38 39 40 41 41 42 43 44 45 46 47 48 48 49 50 51 51
26 26 27 27 27 28 28 29 29 30 31 32 32 33 34 36 37 38 39 39 40 40 41 41 42 43 44 46 47 48 48 49 50 51 52 52 53 53
28 28 29 29 30 30 30 31 32 33 33 34 35 36 37 38 38 39 39 40 41 42 42 43 44 45 46 48 48 50 51 51 52 52 53 54 54 54
29 30 30 31 31 31 32 33 34 35 36 36 37 37 38 39 39 40 41 42 43 44 45 45 47 48 49 50 51 52 52 52 52 53 54 54 55 55
29 30 30 30 31 32 34 35 36 36 36 37 38 38 39 40 41 42 43 44 45 46 47 48 49 50 51 52 52 52 53 54 54 54 55 55 55 55
30 30 31 32 33 34 35 36 36 37 38 39 40 41 41 42 43 44 45 46 47 48 49 49 50 51 51 52 52 53 54 55 56 56 57 58 58 57
31 31 32 33 34 35 36 37 38 39 40 41 42 42 43 44 45 46 47 47 48 49 49 50 51 51 52 53 53 54 55 56 56 57 57 58 59 58
Wind_Direction
47 59 25 16 2 358 351 343 353 353 345 336 337 335 329 328 327 319 315 310 307 303 303 304 304 302 301 301 300 300 297 292 289 288 287 287 286 285
37 1 7 2 349 347 339 338 337 334 321 326 336 332 325 322 322 319 316 314 310 307 305 304 303 300 300 300 299 297 296 295 292 291 290 289 288 288
276 313 329 336 335 337 333 325 324 322 326 328 328 325 324 323 320 321 319 314 310 309 306 303 304 304 303 302 301 300 299 297 294 292 293 293 291 289
275 295 308 316 319 320 323 324 321 317 318 317 314 314 314 316 319 318 314 313 312 310 307 307 306 306 307 306 304 302 300 298 297 296 295 293 292 291
275 283 292 301 307 310 310 312 312 311 310 311 311 312 311 310 312 314 315 314 312 312 311 310 310 309 308 306 303 299 297 297 297 297 296 296 295 295
274 278 283 291 296 299 300 301 302 303 304 306 308 308 309 311 312 313 313 313 314 314 314 315 314 311 308 305 302 300 298 297 297 298 298 297 297 296
276 279 283 288 293 297 299 300 301 302 303 305 307 308 309 310 312 313 313 314 314 313 313 313 312 310 310 308 307 305 303 301 299 298 298 298 297 297
276 280 283 286 290 293 296 297 298 299 301 302 304 306 306 307 308 309 309 308 308 309 309 310 310 308 307 306 306 306 304 302 301 299 298 298 298 298
274 278 281 285 288 291 293 295 295 295 295 297 299 301 302 302 304 306 307 308 308 308 308 309 309 310 309 307 307 306 304 303 302 300 300 299 299 299
275 278 282 286 289 292 292 293 293 294 295 296 298 300 301 302 303 305 307 308 308 309 310 310 310 310 310 308 308 307 306 306 305 303 301 301 300 300
274 278 282 284 288 289 291 293 294 294 297 299 301 302 303 303 303 305 306 307 308 308 309 310 310 310 309 308 308 308 307 307 306 303 302 301 301 301
276 279 281 283 285 286 289 292 294 295 297 299 300 301 302 303 304 305 305 306 307 308 308 308 309 309 308 307 307 307 307 306 305 304 303 302 302 302
277 280 282 283 284 286 288 291 294 296 297 298 299 300 301 302 303 304 305 305 306 307 307 308 308 308 307 306 306 306 306 306 305 304 304 304 303 303
278 281 283 286 285 287 289 290 293 295 296 297 298 299 300 301 302 303 304 305 305 306 307 307 307 306 306 305 306 306 306 306 306 305 305 305 304 304
278 282 285 285 286 288 289 290 293 295 296 297 297 297 298 300 301 303 304 305 305 305 305 306 306 306 306 305 305 305 306 305 305 305 305 305 305 304
279 282 283 284 286 287 288 290 292 294 295 296 296 296 298 299 300 302 304 305 305 305 305 305 305 305 305 305 305 306 306 305 304 305 305 305 304 304
280 281 282 284 286 287 288 288 291 293 294 295 295 296 297 299 300 301 303 304 304 304 304 305 305 305 305 306 306 306 306 306 305 305 305 305 305 304
279 280 281 283 285 287 288 289 290 293 294 295 296 297 298 298 299 300 301 303 303 304 304 304 304 304 305 307 307 306 306 306 306 306 306 306 305 305
278 279 280 282 284 285 287 288 290 292 293 294 296 297 298 299 300 300 301 302 303 303 303 303 304 305 305 306 307 307 307 307 306 306 306 306 306 306
278 278 279 282 283 285 287 289 290 292 293 295 296 297 298 299 300 300 301 302 302 303 303 303 304 304 305 305 306 307 307 307 306 306 306 306 306 306
279 280 281 283 285 286 288 289 291 292 294 296 297 297 298 299 299 300 301 301 302 303 303 304 304 304 305 306 306 307 307 307 307 307 306 306 307 307
280 281 283 285 285 288 290 291 291 293 294 296 297 297 298 299 299 300 301 301 302 303 303 304 304 304 305 306 307 307 307 308 308 308 308 308 308 308
282 283 284 286 288 289 290 291 292 293 294 296 296 297 298 298 299 300 301 301 302 303 303 304 304 305 305 306 306 307 308 309 309 309 309 309 309 309
Height
5869 5869 5869 5869 5868 5868 5868 5867 5868 5867 5866 5866 5865 5865 5864 5864 5863 5862 5861 5860 5860 5859 5858 5858 5857 5855 5854 5853 5852 5851 5850 5849 5847 5846 5846 5845 5844 5843
5870 5869 5869 5869 5868 5868 5867 5867 5867 5867 5866 5865 5864 5864 5864 5863 5862 5861 5860 5859 5858 5857 5856 5855 5854 5853 5851 5850 5849 5847 5846 5845 5844 5843 5842 5841 5840 5838
5870 5870 5869 5869 5868 5868 5867 5867 5867 5866 5865 5865 5864 5863 5862 5862 5861 5860 5859 5858 5856 5855 5854 5852 5851 5850 5848 5847 5845 5844 5843 5841 5840 5839 5837 5836 5835 5833
5870 5870 5869 5869 5868 5868 5867 5867 5866 5866 5865 5864 5863 5862 5861 5860 5859 5858 5857 5856 5854 5852 5851 5849 5848 5846 5845 5843 5842 5840 5838 5837 5835 5834 5832 5831 5829 5827
5869 5869 5869 5868 5868 5867 5866 5866 5865 5865 5864 5863 5862 5861 5860 5859 5858 5856 5855 5853 5852 5850 5848 5846 5844 5842 5841 5839 5837 5835 5833 5831 5830 5828 5826 5824 5822 5821
5868 5868 5868 5867 5867 5866 5865 5865 5864 5863 5862 5861 5861 5860 5858 5857 5856 5854 5852 5851 5849 5847 5845 5842 5840 5838 5836 5834 5831 5829 5827 5825 5823 5821 5819 5817 5815 5813
5867 5867 5866 5866 5865 5865 5864 5863 5862 5861 5860 5859 5858 5857 5856 5855 5853 5852 5850 5848 5846 5844 5841 5839 5836 5834 5831 5828 5825 5822 5820 5817 5816 5814 5811 5809 5807 5805
5865 5865 5864 5864 5863 5863 5862 5861 5860 5859 5858 5857 5856 5855 5854 5852 5851 5849 5847 5845 5843 5841 5837 5834 5831 5828 5825 5822 5819 5816 5812 5810 5807 5805 5803 5801 5798 5796
5863 5863 5862 5862 5861 5860 5860 5859 5858 5857 5856 5855 5853 5852 5850 5849 5847 5845 5843 5840 5838 5835 5833 5829 5826 5822 5819 5815 5812 5808 5805 5802 5799 5797 5795 5792 5789 5786
5860 5860 5860 5859 5859 5858 5857 5856 5855 5854 5852 5851 5850 5848 5846 5844 5842 5840 5838 5835 5832 5829 5827 5824 5820 5816 5812 5808 5804 5801 5798 5794 5791 5788 5786 5783 5780 5777
5857 5857 5856 5856 5855 5855 5854 5853 5851 5850 5848 5847 5845 5843 5841 5839 5837 5835 5833 5830 5827 5824 5821 5817 5814 5810 5806 5802 5797 5793 5790 5786 5783 5780 5777 5773 5770 5767
5853 5853 5853 5852 5851 5850 5850 5848 5847 5846 5844 5842 5841 5839 5836 5834 5832 5829 5827 5824 5821 5818 5814 5811 5807 5803 5799 5795 5791 5786 5782 5778 5774 5771 5767 5763 5760 5756
5849 5849 5848 5848 5847 5846 5845 5844 5843 5841 5839 5838 5836 5833 5831 5828 5826 5823 5820 5817 5814 5810 5807 5803 5799 5795 5791 5787 5783 5779 5774 5770 5765 5761 5757 5753 5748 5744
5845 5844 5843 5843 5842 5841 5840 5839 5837 5836 5834 5832 5830 5827 5825 5822 5819 5816 5813 5810 5806 5802 5798 5794 5791 5786 5782 5778 5775 5770 5765 5760 5756 5751 5747 5742 5737 5732
5839 5839 5838 5837 5837 5836 5835 5833 5831 5830 5827 5825 5823 5821 5818 5815 5812 5809 5805 5802 5798 5794 5789 5785 5781 5777 5773 5769 5765 5760 5755 5750 5745 5740 5735 5730 5725 5720
5834 5833 5832 5832 5831 5829 5828 5827 5825 5823 5821 5819 5816 5813 5811 5808 5804 5801 5798 5794 5789 5785 5780 5776 5771 5767 5763 5758 5754 5749 5744 5739 5734 5728 5723 5718 5712 5706
5828 5827 5826 5825 5824 5822 5821 5819 5817 5815 5813 5811 5808 5805 5802 5799 5796 5792 5789 5785 5780 5776 5771 5766 5761 5757 5752 5748 5743 5737 5731 5726 5721 5715 5710 5704 5698 5692
5821 5820 5819 5818 5817 5815 5813 5812 5810 5807 5805 5803 5800 5797 5793 5790 5786 5783 5779 5775 5770 5766 5761 5756 5751 5746 5742 5736 5731 5725 5719 5713 5707 5701 5695 5690 5684 5677
5813 5812 5811 5810 5809 5807 5805 5803 5801 5799 5796 5793 5790 5787 5784 5780 5776 5772 5768 5764 5759 5755 5750 5744 5739 5734 5730 5725 5719 5712 5705 5699 5693 5687 5681 5674 5669 5662
5805 5804 5803 5802 5800 5799 5797 5794 5792 5789 5786 5783 5780 5777 5773 5769 5766 5761 5757 5753 5748 5743 5738 5732 5727 5721 5716 5711 5706 5699 5691 5685 5679 5673 5666 5660 5653 5646
5797 5796 5795 5793 5791 5789 5787 5785 5782 5779 5776 5773 5770 5766 5762 5758 5754 5750 5745 5741 5736 5731 5725 5720 5714 5708 5702 5696 5691 5685 5677 5670 5663 5657 5651 5645 5638 5632
5789 5788 5786 5784 5782 5780 5778 5775 5772 5769 5766 5762 5759 5755 5751 5747 5742 5738 5733 5728 5723 5717 5712 5706 5700 5694 5688 5682 5676 5670 5664 5656 5648 5641 5633 5627 5620 5615
5780 5778 5777 5775 5773 5770 5768 5765 5761 5758 5755 5751 5747 5743 5739 5734 5730 5725 5720 5715 5710 5704 5698 5693 5687 5681 5674 5668 5661 5655 5648 5641 5634 5627 5619 5610 5603 5596